Weather Roundup
Issued by NWS Chicago, IL

Home | Current Version | Previous Version | Text Only | Print | Product List | Glossary Off
Versions: 1 2 3 4 5 6 7 8 9 10 11 12 13 14 15 16 17 18 19 20 21 22 23 24 25 26 27 28 29 30 31 32 33 34 35 36 37 38 39 40 41 42 43 44 45 46 47 48 49 50

000
NZUS59 KLOT 050058
HRRLOT

CHICAGO AREA WEATHER ROUNDUP
NATIONAL WEATHER SERVICE CHICAGO/ROMEOVILLE IL
700 PM CST WED MAR 04 2015

NOTE: "FAIR" INDICATES FEW OR NO CLOUDS BELOW 12,000 FEET WITH NO
SIGNIFICANT WEATHER AND/OR OBSTRUCTIONS TO VISIBILITY.

* THESE STATIONS ARE NOT UNDER NWS QUALITY CONTROL. THEY ALSO MAY NOT
  REPORT WEATHER SUCH AS PRECIPITATION OR FOG.

ILZ005-006-012>014-019>023-050200-
NORTHEAST ILLINOIS

CITY           SKY/WX    TMP DP  RH WIND       PRES   REMARKS
OHARE          MOCLDY    16  -3  43 NW13      30.23R WCI   2
MIDWAY         MOCLDY    20   0  41 NW14      30.23F WCI   7
AURORA         PTCLDY    12   1  61 W10       30.26R WCI  -1
WAUKEGAN       NOT AVBL
DUPAGE AIRPORT PTCLDY    14   0  53 W9        30.23S WCI   2
WHEELING       PTCLDY    17  -3  41 NW9       30.26R WCI   6
NORTHERLY IS     N/A     20  -1  40 W15         N/A  WCI   6
$$

WIZ051-052-058>065-066-070>072-050200-
SOUTHEAST WISCONSIN

CITY           SKY/WX    TMP DP  RH WIND       PRES   REMARKS
MILWAUKEE      MOCLDY    16  -5  39 NW8       30.22R WCI   5
KENOSHA*         N/A     13  -4  46 W7        30.23R WCI   3
RACINE*        PTCLDY    15  -5  40 NW6       30.24R WCI   6
WAUKESHA       PTCLDY    10  -6  48 W9        30.21R WCI  -2
$$

INZ001>003-010>013-019-020-050200-
NORTHWEST INDIANA

CITY           SKY/WX    TMP DP  RH WIND       PRES   REMARKS
GARY*          MOCLDY    21  -4  33 NW14      30.24R WCI   8
MICHIGAN CITY* NOT AVBL
RENSSELAER*    NOT AVBL
$$

LMZ740>746-050200-
SOUTHERN LAKE MICHIGAN

STATION/POSITION TIME  SKY/WX   TEMP WIND        PRES    VSBY
                                AIR  DIR/SP/G
                 (UTC)          (F)  (DEG/KT/KT) (MB)    (MI)
HARRISON CRIB    0000            19  310/ 15/ 18   N/A
BURNHAM HARBOR   0000            20  260/ 11/ 14   N/A
CALUMET HARBOR   0000            20  260/  8/ 12 1022.7R
BURNS HARBOR     NOT AVBL
MICHIGAN CITY    0000            19  310/ 14/ 17   N/A
$$

ABBREVIATIONS USED IN REMARKS
   TC - TEMPERATURE IN CELSIUS
  WCI - WIND CHILL INDEX
   HX - HEAT INDEX
  VSB - VISIBILITY
$$



USA.gov is the U.S. government's official web portal to all federal, state and local government web resources and services.